Regional Weather Roundup
Issued by NWS Green Bay, WI

Home | Current Version | Previous Version | Graphics & Text | Print | Product List | Glossary Off
Versions: 1 2 3 4 5 6 7 8 9 10 11 12 13 14 15 16 17 18 19 20 21 22 23 24 25 26 27 28 29 30 31 32 33 34 35 36 37 38 39 40 41 42 43 44 45 46 47 48 49 50

000
ASUS43 KGRB 220259
RWRGRB

NORTH-CENTRAL AND NORTHEAST WISCONSIN REGIONAL WEATHER ROUNDUP
NATIONAL WEATHER SERVICE GREEN BAY WI
1000 PM CDT TUE OCT 21 2014

WIZ005-009-010>012-018-019-220400-
NORTH CENTRAL WISCONSIN

CITY           SKY/WX    TMP DP  RH WIND       PRES   REMARKS
IRONWOOD       CLEAR     36  34  93 E3        30.23R
MANITOWISH WTR NOT AVBL
ARBOR VITAE    NOT AVBL
EAGLE RIVER    NOT AVBL
LAND O LAKES   NOT AVBL
RHINELANDER    CLEAR     33  32  96 SE3       30.26R
PHILLIPS       NOT AVBL
ANTIGO         NOT AVBL
TOMAHAWK       NOT AVBL
MERRILL        NOT AVBL
$$

WIZ013-073-220400-
NORTHEAST WISCONSIN

CITY           SKY/WX    TMP DP  RH WIND       PRES   REMARKS
IRON MOUNTAIN  CLEAR     34  28  79 E3        30.29R
MARINETTE      CLEAR     37  28  70 N5        30.30R
$$

WIZ017-030-035>037-045-220400-
CENTRAL WISCONSIN

CITY           SKY/WX    TMP DP  RH WIND       PRES   REMARKS
MEDFORD        NOT AVBL
WAUSAU         CLEAR     39  33  79 E5        30.25S
MOSINEE        CLEAR     37  34  87 CALM      30.27R
MARSHFIELD     CLEAR     40  33  76 SE6       30.25R
WISC RAPIDS    CLEAR     32  31  96 SE5       30.28R
STEVENS POINT  NOT AVBL
WAUPACA        NOT AVBL
SHAWANO        NOT AVBL
CLINTONVILLE   NOT AVBL
$$

WIZ038-039-048-051-220400-
FOX VALLEY

CITY           SKY/WX    TMP DP  RH WIND       PRES   REMARKS
NWS GREEN BAY  CLEAR     35  33  92 CALM      30.29R
APPLETON       CLEAR     41  30  65 VRB5      30.28R
OSHKOSH        CLEAR     39  35  86 S5        30.28R
FOND DU LAC    CLEAR     36  33  89 S3        30.28R
$$

WIZ022-050-052-220400-
EAST CENTRAL WISCONSIN

CITY           SKY/WX    TMP DP  RH WIND       PRES   REMARKS
STURGEON BAY   CLEAR     39  32  75 NE5       30.30R
MANITOWOC      NOT AVBL
SHEBOYGAN      CLEAR     35  33  92 N3        30.29R
$$

LMZ563-521-522-541>543-220400-
LAKESHORE

STATION/POSITION TIME  TEMP    WIND        PRES    VSBY  WAVE
                       AIR SEA DIR/SP/G                  HT/PER
                 (UTC) (F)     (DEG/KT/KT) (MB)    (MI)  (FT/S)
SHEBOYGAN LKSHOR 0200   47 50   50/ 17/ 18 1025.8R
KEWAUNEE LKSHORE 0200   47      70/  7/ 10 1024.6R
NORTHPORT PIER   0200   44      30/ 10/ 13 1025.7R
N MID LAKE BUOY  0200   46 51   40/ 12/ 14 1025.9R         2/ 4
SISTER BAY LKSHO 0200           60/  4/  7   N/A
CHAMBERS ISLAND  0200   44      30/ 12/ 15 1026.1R
MENOMINEE LKSHOR 0200   46      40/ 12/ 15 1026.4R
$$



USA.gov is the U.S. government's official web portal to all federal, state and local government web resources and services.